• En España
  • Lista de países
  • Para 7 días
  • Temperatura del agua
  • Mapa Satelital
  • El tiempo en el mapa
  • Informadores
  • user-avatar
    Iniciar sesión

    Tiempo cada hora Vyselki

    Hoy, 17 Julio, Martes

    Tiempo Temperatura Precipitaciones Viento Presión Humedad
    00:00 +20°C° 0,1 mm 3 mps 735 mmHg 94%
    01:00 +19°C° 0,1 mm 3 mps 735 mmHg 95%
    02:00 +19°C° 0,1 mm 3 mps 735 mmHg 96%
    03:00 +19°C° 0,1 mm 3 mps 735 mmHg 95%
    04:00 +19°C° 0,1 mm 3 mps 735 mmHg 95%
    05:00 +19°C° 0,1 mm 3 mps 734 mmHg 95%
    06:00 +20°C° 0,4 mm 3 mps 734 mmHg 93%
    07:00 +21°C° 0,4 mm 3 mps 734 mmHg 92%
    08:00 +22°C° 0,4 mm 4 mps 734 mmHg 90%
    09:00 +23°C° 0,8 mm 4 mps 734 mmHg 87%
    10:00 +23°C° 0,8 mm 4 mps 734 mmHg 85%
    11:00 +25°C° 0,8 mm 5 mps 734 mmHg 82%
    12:00 +25°C° 0,7 mm 4 mps 734 mmHg 83%
    13:00 +25°C° 0,7 mm 4 mps 733 mmHg 85%
    14:00 +25°C° 0,7 mm 4 mps 733 mmHg 86%
    15:00 +25°C° 0,6 mm 4 mps 733 mmHg 87%
    16:00 +24°C° 0,6 mm 3 mps 733 mmHg 88%
    17:00 +24°C° 0,6 mm 3 mps 733 mmHg 88%
    18:00 +22°C° 0,4 mm 3 mps 733 mmHg 90%
    19:00 +21°C° 0,4 mm 3 mps 733 mmHg 92%
    20:00 +21°C° 0,4 mm 3 mps 733 mmHg 94%
    21:00 +20°C° 0,1 mm 2 mps 733 mmHg 95%
    22:00 +20°C° 0,1 mm 2 mps 733 mmHg 95%
    23:00 +19°C° 0,1 mm 2 mps 733 mmHg 96%

    Mañana, 18 Julio, Miércoles

    Tiempo Temperatura Precipitaciones Viento Presión Humedad
    00:00 +19°C° 0,3 mm 2 mps 733 mmHg 96%
    01:00 +19°C° 0,3 mm 2 mps 733 mmHg 96%
    02:00 +19°C° 0,3 mm 3 mps 732 mmHg 96%
    03:00 +19°C° 0,1 mm 3 mps 732 mmHg 96%
    04:00 +19°C° 0,1 mm 3 mps 732 mmHg 96%
    05:00 +19°C° 0,1 mm 4 mps 732 mmHg 97%
    06:00 +20°C° 0,3 mm 4 mps 732 mmHg 96%
    07:00 +20°C° 0,3 mm 4 mps 732 mmHg 96%
    08:00 +20°C° 0,3 mm 4 mps 732 mmHg 95%
    09:00 +21°C° 0,3 mm 4 mps 732 mmHg 94%
    10:00 +21°C° 0,3 mm 4 mps 732 mmHg 92%
    11:00 +22°C° 0,3 mm 5 mps 732 mmHg 90%
    12:00 +23°C° 0,5 mm 5 mps 732 mmHg 88%
    13:00 +23°C° 0,5 mm 5 mps 731 mmHg 86%
    14:00 +25°C° 0,5 mm 5 mps 731 mmHg 84%
    15:00 +25°C° 0,4 mm 5 mps 731 mmHg 84%
    16:00 +25°C° 0,4 mm 5 mps 731 mmHg 84%
    17:00 +25°C° 0,4 mm 4 mps 731 mmHg 84%
    18:00 +23°C° 0,1 mm 4 mps 731 mmHg 87%
    19:00 +21°C° 0,1 mm 3 mps 731 mmHg 91%
    20:00 +20°C° 0,1 mm 3 mps 731 mmHg 95%
    21:00 +20°C° 0 mm 2 mps 731 mmHg 95%
    22:00 +19°C° 0 mm 2 mps 731 mmHg 96%
    23:00 +19°C° 0 mm 2 mps 732 mmHg 97%

    Pasado mañana, 19 Julio, Jueves

    Tiempo Temperatura Precipitaciones Viento Presión Humedad
    00:00 +18°C° 0 mm 2 mps 732 mmHg 97%
    01:00 +18°C° 0 mm 2 mps 732 mmHg 97%
    02:00 +18°C° 0 mm 2 mps 732 mmHg 98%
    03:00 +18°C° 0 mm 2 mps 732 mmHg 98%
    04:00 +19°C° 0 mm 1 mps 732 mmHg 98%
    05:00 +20°C° 0 mm 1 mps 732 mmHg 98%
    06:00 +20°C° 0,1 mm 1 mps 732 mmHg 96%
    07:00 +21°C° 0,1 mm 1 mps 733 mmHg 94%
    08:00 +20°C° 0,1 mm 2 mps 733 mmHg 92%
    09:00 +23°C° 0,3 mm 2 mps 733 mmHg 87%
    10:00 +24°C° 0,3 mm 2 mps 733 mmHg 82%
    11:00 +25°C° 0,3 mm 2 mps 733 mmHg 78%
    12:00 +25°C° 0,4 mm 2 mps 733 mmHg 75%
    13:00 +26°C° 0,4 mm 2 mps 733 mmHg 73%
    14:00 +27°C° 0,4 mm 2 mps 733 mmHg 70%
    15:00 +27°C° 0,3 mm 2 mps 733 mmHg 71%
    16:00 +26°C° 0,3 mm 2 mps 733 mmHg 72%
    17:00 +26°C° 0,3 mm 1 mps 733 mmHg 74%
    18:00 +25°C° 0,1 mm 2 mps 733 mmHg 79%
    19:00 +24°C° 0,1 mm 2 mps 733 mmHg 84%
    20:00 +21°C° 0,1 mm 2 mps 733 mmHg 89%
    21:00 +21°C° 0 mm 2 mps 734 mmHg 90%
    22:00 +20°C° 0 mm 2 mps 734 mmHg 92%
    23:00 +20°C° 0 mm 2 mps 734 mmHg 94%

    20 Julio, Viernes

    Tiempo Temperatura Precipitaciones Viento Presión Humedad
    00:00 +20°C° 0,5 mm 2 mps 734 mmHg 95%
    01:00 +19°C° 0,5 mm 2 mps 734 mmHg 95%
    02:00 +19°C° 0,5 mm 2 mps 734 mmHg 96%
    03:00 +19°C° 0,7 mm 2 mps 734 mmHg 96%
    04:00 +19°C° 0,7 mm 2 mps 734 mmHg 97%
    05:00 +19°C° 0,7 mm 2 mps 734 mmHg 97%
    06:00 +20°C° 0,1 mm 2 mps 735 mmHg 94%
    07:00 +21°C° 0,1 mm 3 mps 735 mmHg 91%
    08:00 +22°C° 0,1 mm 3 mps 735 mmHg 89%
    09:00 +24°C° 0,1 mm 3 mps 735 mmHg 87%
    10:00 +24°C° 0,1 mm 2 mps 735 mmHg 85%
    11:00 +25°C° 0,1 mm 2 mps 735 mmHg 83%
    12:00 +25°C° 0,3 mm 2 mps 735 mmHg 80%
    13:00 +26°C° 0,3 mm 2 mps 735 mmHg 78%
    14:00 +26°C° 0,3 mm 2 mps 735 mmHg 76%
    15:00 +26°C° 0,4 mm 2 mps 735 mmHg 77%
    16:00 +27°C° 0,4 mm 2 mps 735 mmHg 77%
    17:00 +27°C° 0,4 mm 3 mps 735 mmHg 78%
    18:00 +25°C° 0,1 mm 2 mps 735 mmHg 83%
    19:00 +24°C° 0,1 mm 2 mps 735 mmHg 87%
    20:00 +23°C° 0,1 mm 2 mps 735 mmHg 92%
    21:00 +21°C° 0 mm 2 mps 735 mmHg 92%
    22:00 +21°C° 0 mm 2 mps 735 mmHg 93%
    23:00 +20°C° 0 mm 2 mps 735 mmHg 94%

    21 Julio, Sábado

    Tiempo Temperatura Precipitaciones Viento Presión Humedad
    00:00 +20°C° 0 mm 2 mps 736 mmHg 95%
    01:00 +19°C° 0 mm 2 mps 736 mmHg 95%
    02:00 +19°C° 0 mm 2 mps 736 mmHg 96%
    03:00 +19°C° 0 mm 2 mps 736 mmHg 96%
    04:00 +19°C° 0 mm 2 mps 736 mmHg 96%
    05:00 +19°C° 0 mm 2 mps 736 mmHg 96%
    06:00 +21°C° 0 mm 2 mps 736 mmHg 92%
    07:00 +23°C° 0 mm 2 mps 736 mmHg 88%
    08:00 +24°C° 0 mm 3 mps 736 mmHg 84%
    09:00 +25°C° 0,6 mm 3 mps 736 mmHg 80%
    10:00 +26°C° 0,6 mm 3 mps 736 mmHg 77%
    11:00 +27°C° 0,6 mm 3 mps 736 mmHg 73%
    12:00 +28°C° 0,8 mm 3 mps 736 mmHg 72%
    13:00 +28°C° 0,8 mm 4 mps 736 mmHg 71%
    14:00 +28°C° 0,8 mm 4 mps 736 mmHg 70%
    15:00 +28°C° 1,6 mm 3 mps 736 mmHg 75%
    16:00 +27°C° 1,6 mm 3 mps 736 mmHg 79%
    17:00 +26°C° 1,6 mm 2 mps 736 mmHg 83%
    18:00 +25°C° 0,2 mm 2 mps 736 mmHg 86%
    19:00 +24°C° 0,2 mm 2 mps 736 mmHg 89%
    20:00 +23°C° 0,2 mm 2 mps 736 mmHg 92%
    21:00 +23°C° 0 mm 2 mps 736 mmHg 93%
    22:00 +21°C° 0 mm 2 mps 736 mmHg 94%
    23:00 +21°C° 0 mm 2 mps 736 mmHg 95%

    22 Julio, Domingo

    Tiempo Temperatura Precipitaciones Viento Presión Humedad
    00:00 +20°C° 0 mm 2 mps 736 mmHg 96%
    01:00 +20°C° 0 mm 2 mps 736 mmHg 96%
    02:00 +20°C° 0 mm 2 mps 736 mmHg 97%
    03:00 +20°C° 0 mm 2 mps 737 mmHg 97%
    04:00 +20°C° 0 mm 2 mps 737 mmHg 97%
    05:00 +21°C° 0 mm 1 mps 737 mmHg 97%
    06:00 +21°C° 0 mm 2 mps 737 mmHg 93%
    07:00 +23°C° 0 mm 2 mps 737 mmHg 89%
    08:00 +24°C° 0 mm 2 mps 737 mmHg 85%
    09:00 +25°C° 0 mm 2 mps 737 mmHg 80%
    10:00 +26°C° 0 mm 2 mps 737 mmHg 76%
    11:00 +27°C° 0 mm 3 mps 737 mmHg 71%
    12:00 +28°C° 0,3 mm 2 mps 737 mmHg 70%
    13:00 +28°C° 0,3 mm 2 mps 737 mmHg 68%
    14:00 +28°C° 0,3 mm 2 mps 737 mmHg 66%
    15:00 +28°C° 0,5 mm 2 mps 736 mmHg 69%
    16:00 +28°C° 0,5 mm 2 mps 736 mmHg 72%
    17:00 +28°C° 0,5 mm 2 mps 736 mmHg 75%
    18:00 +26°C° 0,3 mm 2 mps 736 mmHg 80%
    19:00 +25°C° 0,3 mm 2 mps 736 mmHg 85%
    20:00 +23°C° 0,3 mm 1 mps 736 mmHg 90%
    21:00 +23°C° 0,1 mm 1 mps 737 mmHg 91%
    22:00 +22°C° 0,1 mm 1 mps 737 mmHg 93%
    23:00 +20°C° 0,1 mm 2 mps 737 mmHg 94%
    Mostrar más